GEFSMW_prec_meanprecacc_024.txt.gz
Total_Precipitation_Accumulation
0.25 0.28 0.29 0.30 0.26 0.24 0.25 0.27 0.24 0.23 0.26 0.26 0.28 0.29 0.27 0.20 0.12 0.09 0.08 0.10 0.10 0.10 0.19 0.18 0.23 0.18 0.15 0.12 0.09 0.07 0.05 0.07 0.09 0.08 0.08 0.07 0.02 0.01 0.01 0.02 0.06 0.17 0.32
0.31 0.35 0.38 0.41 0.33 0.35 0.39 0.46 0.49 0.57 0.55 0.60 0.66 0.66 0.64 0.53 0.40 0.29 0.21 0.18 0.19 0.18 0.20 0.27 0.31 0.29 0.27 0.22 0.16 0.11 0.10 0.11 0.11 0.11 0.10 0.12 0.09 0.04 0.00 0.00 0.02 0.11 0.27
0.27 0.32 0.42 0.53 0.55 0.59 0.59 0.67 0.82 0.90 0.88 0.91 0.94 0.94 1.02 1.06 0.87 0.62 0.43 0.36 0.34 0.33 0.32 0.33 0.40 0.36 0.34 0.32 0.28 0.17 0.16 0.16 0.11 0.10 0.17 0.20 0.16 0.10 0.03 0.01 0.03 0.06 0.13
0.26 0.36 0.47 0.67 0.82 0.82 0.80 0.91 1.01 1.08 1.10 1.11 1.07 1.06 1.09 1.05 0.90 0.69 0.50 0.42 0.43 0.45 0.44 0.41 0.42 0.45 0.44 0.42 0.36 0.26 0.25 0.19 0.16 0.20 0.23 0.18 0.16 0.11 0.07 0.05 0.05 0.07 0.10
0.32 0.48 0.59 0.73 0.79 0.81 0.92 1.11 1.21 1.25 1.23 1.14 1.00 1.00 0.97 0.97 0.91 0.75 0.61 0.53 0.51 0.47 0.43 0.47 0.55 0.58 0.58 0.51 0.38 0.33 0.35 0.27 0.21 0.22 0.21 0.14 0.11 0.09 0.09 0.08 0.12 0.10 0.06
0.45 0.58 0.69 0.78 0.77 0.82 1.00 1.15 1.21 1.24 1.19 1.14 1.10 1.12 1.12 1.05 0.97 0.84 0.74 0.59 0.47 0.37 0.36 0.39 0.46 0.50 0.52 0.49 0.42 0.36 0.34 0.29 0.23 0.19 0.24 0.27 0.22 0.23 0.19 0.10 0.11 0.08 0.02
0.65 0.72 0.78 0.79 0.82 0.90 0.99 1.01 1.01 0.99 0.98 1.01 1.06 1.05 1.01 0.96 0.89 0.79 0.67 0.53 0.42 0.34 0.33 0.30 0.24 0.25 0.30 0.38 0.44 0.38 0.35 0.28 0.23 0.22 0.24 0.28 0.27 0.27 0.27 0.21 0.14 0.08 0.03
0.97 1.09 1.07 1.00 0.93 0.90 0.88 0.82 0.79 0.75 0.72 0.74 0.79 0.78 0.73 0.70 0.67 0.63 0.58 0.52 0.45 0.39 0.33 0.26 0.19 0.15 0.16 0.23 0.35 0.38 0.40 0.34 0.27 0.25 0.21 0.21 0.18 0.16 0.23 0.34 0.30 0.20 0.15
0.72 0.99 1.02 0.93 0.83 0.71 0.61 0.54 0.48 0.42 0.39 0.37 0.37 0.39 0.41 0.42 0.42 0.42 0.42 0.41 0.37 0.31 0.25 0.20 0.16 0.14 0.12 0.13 0.19 0.31 0.39 0.42 0.38 0.36 0.31 0.26 0.23 0.18 0.19 0.29 0.38 0.33 0.34
0.57 0.61 0.63 0.63 0.61 0.56 0.47 0.37 0.27 0.19 0.16 0.13 0.12 0.12 0.11 0.11 0.12 0.12 0.13 0.14 0.15 0.14 0.12 0.10 0.08 0.08 0.07 0.09 0.17 0.28 0.39 0.44 0.44 0.40 0.36 0.37 0.34 0.33 0.27 0.25 0.35 0.39 0.49
0.31 0.31 0.31 0.33 0.38 0.39 0.33 0.25 0.19 0.14 0.10 0.06 0.04 0.03 0.02 0.02 0.02 0.02 0.02 0.02 0.03 0.03 0.03 0.03 0.03 0.04 0.03 0.03 0.07 0.15 0.27 0.37 0.41 0.36 0.35 0.40 0.43 0.48 0.36 0.35 0.38 0.43 0.54
0.12 0.11 0.11 0.13 0.15 0.15 0.15 0.14 0.12 0.10 0.06 0.02 0.01 0.00 0.00 0.00 0.00 0.00 0.00 0.00 0.00 0.00 0.00 0.01 0.01 0.01 0.01 0.02 0.03 0.05 0.15 0.31 0.41 0.49 0.53 0.54 0.57 0.58 0.45 0.45 0.53 0.62 0.68
0.05 0.05 0.05 0.07 0.08 0.10 0.11 0.12 0.12 0.14 0.07 0.02 0.01 0.01 0.01 0.00 0.00 0.00 0.00 0.00 0.00 0.00 0.00 0.00 0.00 0.00 0.00 0.01 0.01 0.02 0.06 0.16 0.29 0.39 0.53 0.63 0.70 0.72 0.66 0.56 0.62 0.76 0.84
0.03 0.03 0.03 0.04 0.05 0.07 0.11 0.13 0.16 0.12 0.05 0.03 0.03 0.02 0.01 0.01 0.01 0.00 0.00 0.00 0.00 0.00 0.00 0.00 0.00 0.00 0.00 0.01 0.01 0.02 0.03 0.06 0.14 0.21 0.25 0.33 0.43 0.51 0.60 0.60 0.56 0.59 0.73
0.02 0.02 0.02 0.03 0.03 0.03 0.05 0.09 0.11 0.08 0.05 0.04 0.03 0.02 0.02 0.02 0.01 0.01 0.01 0.00 0.00 0.00 0.00 0.00 0.00 0.00 0.00 0.00 0.01 0.02 0.02 0.03 0.07 0.09 0.10 0.13 0.16 0.18 0.22 0.29 0.39 0.44 0.50
0.02 0.02 0.03 0.05 0.03 0.02 0.03 0.06 0.08 0.07 0.06 0.06 0.06 0.05 0.04 0.03 0.02 0.01 0.01 0.00 0.00 0.00 0.00 0.00 0.00 0.00 0.00 0.00 0.00 0.01 0.01 0.02 0.03 0.03 0.04 0.06 0.10 0.09 0.09 0.11 0.16 0.24 0.34
0.02 0.03 0.04 0.04 0.03 0.03 0.04 0.06 0.07 0.07 0.08 0.09 0.09 0.10 0.08 0.06 0.04 0.03 0.01 0.01 0.00 0.00 0.00 0.00 0.00 0.00 0.00 0.00 0.00 0.00 0.00 0.00 0.00 0.00 0.01 0.01 0.03 0.04 0.04 0.06 0.07 0.09 0.11
0.03 0.05 0.06 0.04 0.04 0.04 0.04 0.06 0.09 0.13 0.17 0.17 0.17 0.16 0.12 0.08 0.06 0.05 0.05 0.04 0.03 0.02 0.01 0.00 0.00 0.00 0.00 0.00 0.00 0.00 0.00 0.00 0.00 0.00 0.00 0.00 0.00 0.01 0.02 0.02 0.02 0.03 0.04
0.05 0.07 0.10 0.09 0.09 0.08 0.07 0.08 0.11 0.18 0.24 0.21 0.20 0.19 0.16 0.13 0.09 0.08 0.07 0.07 0.06 0.04 0.02 0.00 0.00 0.00 0.00 0.00 0.00 0.00 0.00 0.00 0.00 0.00 0.00 0.00 0.00 0.00 0.00 0.00 0.01 0.01 0.00
0.14 0.19 0.24 0.26 0.23 0.22 0.15 0.13 0.13 0.17 0.22 0.23 0.21 0.18 0.17 0.16 0.13 0.09 0.07 0.06 0.06 0.05 0.03 0.01 0.01 0.00 0.00 0.00 0.00 0.00 0.00 0.00 0.00 0.00 0.00 0.00 0.00 0.00 0.00 0.00 0.00 0.01 0.00
0.17 0.25 0.31 0.41 0.45 0.48 0.40 0.31 0.25 0.23 0.23 0.22 0.21 0.20 0.19 0.18 0.12 0.08 0.07 0.06 0.06 0.05 0.05 0.03 0.02 0.02 0.01 0.00 0.00 0.00 0.00 0.00 0.00 0.00 0.00 0.00 0.00 0.00 0.00 0.00 0.00 0.00 0.00
0.10 0.15 0.26 0.33 0.42 0.50 0.55 0.54 0.48 0.35 0.27 0.23 0.22 0.20 0.23 0.24 0.19 0.14 0.10 0.07 0.06 0.08 0.08 0.07 0.05 0.03 0.02 0.01 0.00 0.00 0.00 0.00 0.00 0.00 0.00 0.00 0.00 0.00 0.00 0.00 0.00 0.00 0.00
0.07 0.11 0.17 0.24 0.26 0.27 0.32 0.43 0.43 0.37 0.35 0.31 0.28 0.25 0.25 0.27 0.26 0.24 0.22 0.15 0.11 0.09 0.09 0.08 0.06 0.05 0.04 0.03 0.02 0.01 0.00 0.00 0.00 0.00 0.00 0.00 0.00 0.00 0.00 0.00 0.00 0.00 0.00
0.09 0.11 0.15 0.17 0.17 0.18 0.18 0.22 0.23 0.22 0.26 0.32 0.35 0.32 0.29 0.29 0.28 0.29 0.28 0.25 0.23 0.19 0.17 0.14 0.10 0.07 0.06 0.05 0.05 0.03 0.02 0.01 0.00 0.00 0.00 0.00 0.00 0.00 0.00 0.00 0.00 0.00 0.00
0.16 0.16 0.16 0.16 0.17 0.18 0.18 0.15 0.13 0.13 0.18 0.21 0.24 0.26 0.28 0.29 0.30 0.29 0.27 0.25 0.24 0.22 0.22 0.19 0.13 0.10 0.08 0.07 0.07 0.06 0.04 0.03 0.02 0.01 0.00 0.00 0.00 0.00 0.00 0.00 0.00 0.00 0.00
0.10 0.08 0.08 0.07 0.07 0.09 0.11 0.10 0.07 0.07 0.12 0.15 0.19 0.18 0.19 0.22 0.23 0.23 0.21 0.18 0.16 0.15 0.13 0.12 0.11 0.10 0.07 0.06 0.05 0.04 0.04 0.03 0.03 0.03 0.02 0.01 0.01 0.00 0.00 0.00 0.00 0.00 0.00

GEFSMW_prec_meanprecacc_030.txt.gz
Total_Precipitation_Accumulation
0.30 0.29 0.29 0.30 0.26 0.25 0.26 0.29 0.28 0.29 0.35 0.38 0.41 0.46 0.51 0.49 0.37 0.26 0.20 0.19 0.16 0.17 0.27 0.25 0.35 0.31 0.29 0.29 0.27 0.27 0.26 0.28 0.31 0.22 0.16 0.08 0.03 0.02 0.01 0.02 0.06 0.17 0.32
0.51 0.42 0.43 0.42 0.34 0.37 0.44 0.52 0.56 0.66 0.66 0.73 0.84 0.88 0.94 0.85 0.71 0.55 0.41 0.32 0.29 0.27 0.28 0.37 0.43 0.42 0.42 0.39 0.35 0.31 0.29 0.29 0.38 0.34 0.27 0.23 0.20 0.13 0.01 0.00 0.02 0.11 0.27
0.43 0.41 0.45 0.55 0.56 0.62 0.65 0.75 0.93 1.02 1.01 1.07 1.14 1.14 1.27 1.27 1.07 0.86 0.66 0.51 0.44 0.40 0.40 0.42 0.52 0.51 0.49 0.48 0.47 0.39 0.36 0.34 0.38 0.44 0.45 0.42 0.38 0.25 0.07 0.04 0.03 0.06 0.13
0.30 0.38 0.49 0.70 0.85 0.84 0.85 0.98 1.12 1.20 1.24 1.27 1.23 1.21 1.24 1.19 1.05 0.86 0.64 0.52 0.49 0.50 0.50 0.49 0.54 0.60 0.60 0.59 0.53 0.52 0.50 0.43 0.38 0.50 0.58 0.51 0.42 0.31 0.19 0.14 0.09 0.09 0.10
0.33 0.49 0.60 0.75 0.82 0.83 0.95 1.17 1.31 1.37 1.37 1.28 1.13 1.13 1.09 1.09 1.04 0.87 0.71 0.63 0.59 0.53 0.49 0.55 0.67 0.74 0.77 0.71 0.60 0.60 0.62 0.54 0.47 0.48 0.48 0.43 0.39 0.33 0.27 0.24 0.27 0.17 0.08
0.46 0.59 0.70 0.79 0.79 0.84 1.03 1.20 1.30 1.34 1.30 1.25 1.20 1.22 1.22 1.16 1.08 0.95 0.84 0.69 0.57 0.47 0.44 0.48 0.59 0.68 0.74 0.73 0.67 0.63 0.62 0.58 0.51 0.47 0.50 0.52 0.43 0.45 0.40 0.25 0.27 0.23 0.08
0.66 0.73 0.79 0.80 0.84 0.92 1.02 1.06 1.08 1.07 1.06 1.09 1.13 1.12 1.07 1.03 0.98 0.88 0.78 0.65 0.54 0.47 0.46 0.43 0.40 0.43 0.51 0.62 0.70 0.66 0.64 0.58 0.52 0.50 0.50 0.52 0.48 0.49 0.47 0.37 0.28 0.25 0.14
0.98 1.10 1.08 1.01 0.95 0.92 0.91 0.87 0.84 0.81 0.78 0.80 0.85 0.83 0.78 0.75 0.73 0.71 0.68 0.65 0.60 0.55 0.49 0.41 0.33 0.29 0.31 0.42 0.58 0.62 0.65 0.61 0.52 0.46 0.42 0.38 0.35 0.35 0.42 0.52 0.47 0.36 0.32
0.73 1.00 1.03 0.95 0.85 0.74 0.64 0.59 0.53 0.47 0.44 0.42 0.42 0.44 0.45 0.46 0.46 0.47 0.48 0.49 0.47 0.42 0.38 0.34 0.30 0.29 0.28 0.30 0.36 0.48 0.56 0.60 0.54 0.50 0.44 0.38 0.34 0.31 0.33 0.46 0.57 0.53 0.53
0.58 0.62 0.64 0.65 0.64 0.59 0.50 0.42 0.32 0.23 0.20 0.17 0.16 0.14 0.14 0.14 0.16 0.16 0.17 0.18 0.18 0.18 0.18 0.18 0.18 0.19 0.21 0.22 0.29 0.39 0.50 0.54 0.53 0.48 0.44 0.45 0.42 0.43 0.39 0.40 0.53 0.61 0.72
0.33 0.33 0.33 0.36 0.41 0.44 0.39 0.30 0.23 0.16 0.11 0.07 0.06 0.05 0.04 0.04 0.03 0.03 0.03 0.03 0.03 0.04 0.04 0.05 0.06 0.08 0.08 0.09 0.12 0.19 0.31 0.41 0.45 0.41 0.41 0.46 0.50 0.57 0.46 0.49 0.56 0.63 0.77
0.15 0.14 0.15 0.17 0.19 0.20 0.20 0.18 0.14 0.13 0.07 0.03 0.01 0.01 0.01 0.00 0.00 0.00 0.00 0.00 0.00 0.00 0.01 0.01 0.01 0.02 0.02 0.03 0.05 0.07 0.17 0.33 0.44 0.52 0.56 0.57 0.63 0.67 0.57 0.58 0.69 0.83 0.94
0.08 0.07 0.08 0.10 0.11 0.13 0.15 0.15 0.15 0.16 0.07 0.03 0.02 0.01 0.01 0.01 0.01 0.01 0.00 0.00 0.00 0.00 0.00 0.00 0.00 0.01 0.01 0.02 0.03 0.04 0.08 0.18 0.32 0.42 0.56 0.67 0.75 0.80 0.77 0.71 0.82 0.97 1.15
0.06 0.05 0.05 0.05 0.06 0.09 0.13 0.15 0.18 0.13 0.05 0.04 0.04 0.03 0.02 0.02 0.02 0.01 0.01 0.00 0.00 0.00 0.00 0.01 0.01 0.01 0.01 0.02 0.03 0.04 0.06 0.08 0.16 0.24 0.28 0.35 0.45 0.54 0.67 0.72 0.76 0.83 1.02
0.04 0.03 0.03 0.04 0.04 0.05 0.08 0.11 0.14 0.10 0.06 0.06 0.05 0.05 0.04 0.04 0.03 0.02 0.01 0.00 0.00 0.00 0.00 0.00 0.00 0.00 0.00 0.00 0.01 0.03 0.04 0.05 0.09 0.12 0.12 0.14 0.17 0.19 0.24 0.33 0.49 0.60 0.73
0.04 0.04 0.05 0.07 0.05 0.04 0.05 0.08 0.11 0.10 0.09 0.09 0.09 0.08 0.07 0.05 0.04 0.03 0.02 0.01 0.01 0.00 0.00 0.00 0.00 0.00 0.00 0.00 0.00 0.01 0.02 0.03 0.04 0.06 0.06 0.07 0.10 0.09 0.09 0.11 0.17 0.28 0.45
0.04 0.04 0.06 0.06 0.05 0.04 0.06 0.08 0.10 0.09 0.10 0.11 0.12 0.12 0.11 0.09 0.07 0.04 0.03 0.02 0.01 0.01 0.01 0.00 0.00 0.00 0.00 0.00 0.00 0.00 0.00 0.01 0.01 0.02 0.02 0.02 0.03 0.04 0.04 0.07 0.08 0.11 0.13
0.04 0.06 0.07 0.06 0.06 0.06 0.07 0.09 0.12 0.15 0.19 0.19 0.20 0.18 0.15 0.11 0.09 0.07 0.06 0.06 0.04 0.03 0.02 0.01 0.01 0.01 0.00 0.00 0.00 0.00 0.00 0.00 0.00 0.00 0.00 0.00 0.00 0.01 0.02 0.03 0.04 0.04 0.04
0.05 0.08 0.10 0.10 0.12 0.12 0.11 0.12 0.16 0.22 0.27 0.25 0.23 0.20 0.18 0.15 0.12 0.12 0.10 0.09 0.08 0.06 0.04 0.02 0.01 0.01 0.00 0.00 0.00 0.00 0.00 0.00 0.00 0.00 0.00 0.00 0.00 0.00 0.00 0.02 0.04 0.03 0.01
0.14 0.20 0.25 0.28 0.27 0.26 0.21 0.19 0.20 0.23 0.27 0.27 0.24 0.21 0.20 0.21 0.18 0.16 0.13 0.11 0.10 0.09 0.06 0.04 0.03 0.02 0.01 0.00 0.00 0.00 0.00 0.00 0.00 0.00 0.00 0.00 0.00 0.00 0.00 0.01 0.04 0.04 0.03
0.18 0.26 0.34 0.45 0.50 0.53 0.46 0.38 0.31 0.28 0.27 0.25 0.25 0.23 0.23 0.23 0.18 0.14 0.13 0.12 0.12 0.11 0.11 0.08 0.06 0.05 0.02 0.01 0.00 0.00 0.00 0.00 0.00 0.00 0.00 0.00 0.00 0.00 0.00 0.00 0.01 0.00 0.01
0.10 0.17 0.30 0.40 0.47 0.56 0.62 0.61 0.53 0.39 0.30 0.25 0.25 0.23 0.25 0.25 0.21 0.18 0.15 0.12 0.13 0.15 0.15 0.12 0.08 0.07 0.05 0.02 0.01 0.00 0.00 0.00 0.00 0.00 0.00 0.00 0.00 0.00 0.00 0.00 0.00 0.00 0.00
0.08 0.12 0.20 0.29 0.31 0.32 0.39 0.51 0.48 0.41 0.39 0.35 0.33 0.29 0.27 0.30 0.28 0.27 0.25 0.19 0.15 0.14 0.14 0.12 0.10 0.09 0.07 0.06 0.03 0.01 0.00 0.00 0.01 0.01 0.00 0.00 0.00 0.00 0.00 0.00 0.00 0.00 0.00
0.10 0.13 0.18 0.21 0.22 0.23 0.24 0.29 0.28 0.26 0.31 0.38 0.41 0.36 0.33 0.32 0.29 0.31 0.29 0.26 0.24 0.21 0.19 0.17 0.14 0.12 0.11 0.11 0.09 0.06 0.03 0.02 0.01 0.01 0.01 0.00 0.00 0.00 0.00 0.00 0.00 0.00 0.00
0.18 0.17 0.18 0.19 0.20 0.21 0.21 0.18 0.15 0.16 0.22 0.25 0.27 0.30 0.32 0.33 0.32 0.31 0.28 0.26 0.24 0.23 0.24 0.21 0.17 0.14 0.13 0.13 0.13 0.12 0.09 0.07 0.04 0.03 0.02 0.02 0.02 0.01 0.01 0.01 0.01 0.00 0.00
0.10 0.08 0.08 0.08 0.08 0.10 0.12 0.11 0.08 0.09 0.15 0.18 0.21 0.19 0.21 0.23 0.25 0.23 0.22 0.18 0.16 0.15 0.13 0.12 0.11 0.11 0.09 0.08 0.08 0.08 0.09 0.08 0.07 0.06 0.06 0.05 0.03 0.03 0.02 0.02 0.01 0.01 0.01

GEFSMW_prec_meanprecacc_036.txt.gz
Total_Precipitation_Accumulation
1.16 1.10 0.98 0.78 0.61 0.51 0.44 0.37 0.32 0.31 0.37 0.39 0.43 0.47 0.52 0.50 0.39 0.29 0.24 0.23 0.19 0.20 0.29 0.27 0.37 0.33 0.30 0.31 0.28 0.29 0.28 0.30 0.34 0.24 0.17 0.08 0.03 0.04 0.05 0.10 0.17 0.24 0.36
1.32 1.27 1.21 1.09 0.82 0.73 0.75 0.76 0.71 0.76 0.73 0.78 0.89 0.94 0.97 0.88 0.74 0.60 0.47 0.41 0.38 0.32 0.32 0.41 0.46 0.45 0.45 0.42 0.38 0.35 0.32 0.32 0.44 0.41 0.31 0.26 0.21 0.15 0.07 0.09 0.13 0.23 0.40
0.76 1.01 1.09 1.24 1.16 1.04 0.97 1.01 1.14 1.21 1.17 1.20 1.25 1.23 1.32 1.31 1.11 0.91 0.71 0.58 0.52 0.45 0.45 0.49 0.57 0.55 0.53 0.51 0.50 0.44 0.40 0.38 0.45 0.54 0.55 0.52 0.46 0.30 0.09 0.07 0.12 0.21 0.30
0.45 0.71 0.89 1.02 1.24 1.24 1.16 1.25 1.35 1.42 1.43 1.44 1.38 1.34 1.33 1.27 1.14 0.94 0.69 0.57 0.54 0.54 0.54 0.53 0.58 0.64 0.64 0.63 0.57 0.57 0.56 0.47 0.42 0.58 0.71 0.68 0.61 0.48 0.28 0.18 0.14 0.17 0.22
0.44 0.66 0.84 0.98 1.01 1.02 1.18 1.43 1.58 1.66 1.63 1.49 1.32 1.30 1.24 1.21 1.16 0.97 0.77 0.68 0.63 0.57 0.52 0.59 0.70 0.78 0.81 0.75 0.65 0.65 0.67 0.59 0.52 0.56 0.61 0.63 0.63 0.61 0.53 0.38 0.33 0.22 0.14
0.61 0.76 0.88 0.98 0.96 0.99 1.20 1.42 1.52 1.55 1.51 1.45 1.40 1.40 1.37 1.31 1.21 1.05 0.91 0.76 0.62 0.50 0.48 0.53 0.62 0.72 0.78 0.78 0.73 0.68 0.68 0.64 0.59 0.57 0.63 0.69 0.66 0.75 0.74 0.50 0.42 0.32 0.13
0.85 0.92 0.97 0.97 1.01 1.06 1.15 1.20 1.23 1.21 1.21 1.24 1.30 1.29 1.23 1.17 1.11 0.99 0.86 0.71 0.60 0.50 0.49 0.46 0.43 0.47 0.56 0.68 0.77 0.72 0.71 0.66 0.62 0.61 0.63 0.68 0.68 0.75 0.77 0.64 0.49 0.38 0.21
1.14 1.26 1.25 1.19 1.12 1.05 1.00 0.95 0.93 0.91 0.89 0.92 0.97 0.96 0.90 0.86 0.83 0.79 0.74 0.69 0.63 0.57 0.51 0.43 0.35 0.33 0.36 0.47 0.63 0.67 0.71 0.68 0.61 0.56 0.55 0.53 0.51 0.54 0.65 0.77 0.69 0.51 0.41
0.88 1.14 1.15 1.08 0.99 0.87 0.75 0.66 0.59 0.54 0.50 0.50 0.50 0.52 0.52 0.54 0.53 0.52 0.52 0.52 0.49 0.43 0.38 0.35 0.32 0.31 0.31 0.33 0.39 0.52 0.61 0.66 0.61 0.59 0.55 0.51 0.47 0.45 0.49 0.65 0.77 0.70 0.63
0.71 0.74 0.76 0.79 0.79 0.73 0.63 0.51 0.38 0.29 0.25 0.22 0.20 0.19 0.18 0.18 0.18 0.18 0.18 0.19 0.19 0.18 0.18 0.19 0.19 0.20 0.22 0.25 0.33 0.42 0.54 0.60 0.59 0.55 0.52 0.54 0.51 0.52 0.49 0.51 0.67 0.77 0.84
0.50 0.47 0.46 0.48 0.55 0.57 0.50 0.39 0.29 0.21 0.15 0.10 0.07 0.06 0.05 0.04 0.04 0.04 0.03 0.03 0.03 0.04 0.04 0.05 0.06 0.08 0.08 0.09 0.13 0.21 0.33 0.44 0.48 0.44 0.45 0.51 0.55 0.61 0.49 0.53 0.62 0.72 0.88
0.29 0.27 0.28 0.28 0.30 0.30 0.29 0.26 0.19 0.16 0.09 0.04 0.02 0.01 0.01 0.01 0.01 0.01 0.00 0.00 0.00 0.00 0.01 0.01 0.01 0.02 0.02 0.04 0.05 0.08 0.18 0.35 0.45 0.54 0.58 0.59 0.65 0.69 0.58 0.59 0.71 0.87 1.00
0.24 0.20 0.18 0.19 0.19 0.19 0.21 0.20 0.18 0.17 0.08 0.04 0.02 0.01 0.01 0.01 0.02 0.01 0.01 0.00 0.00 0.00 0.00 0.00 0.00 0.01 0.01 0.02 0.03 0.04 0.08 0.19 0.33 0.43 0.57 0.67 0.75 0.80 0.78 0.72 0.82 0.98 1.19
0.20 0.17 0.14 0.11 0.11 0.13 0.17 0.18 0.20 0.14 0.06 0.05 0.05 0.03 0.02 0.02 0.02 0.01 0.01 0.00 0.00 0.00 0.00 0.01 0.01 0.01 0.01 0.02 0.03 0.04 0.06 0.09 0.17 0.24 0.29 0.36 0.46 0.54 0.67 0.72 0.76 0.84 1.05
0.11 0.10 0.08 0.08 0.06 0.07 0.10 0.13 0.16 0.12 0.08 0.07 0.07 0.05 0.04 0.04 0.03 0.02 0.01 0.00 0.00 0.00 0.00 0.00 0.00 0.00 0.00 0.00 0.01 0.03 0.04 0.05 0.09 0.12 0.13 0.15 0.17 0.19 0.24 0.33 0.49 0.60 0.75
0.08 0.07 0.08 0.09 0.07 0.05 0.07 0.11 0.14 0.13 0.11 0.11 0.11 0.10 0.08 0.06 0.04 0.03 0.02 0.01 0.01 0.00 0.00 0.00 0.00 0.00 0.00 0.00 0.00 0.01 0.02 0.03 0.05 0.06 0.07 0.08 0.10 0.09 0.09 0.11 0.17 0.28 0.46
0.06 0.06 0.08 0.08 0.07 0.06 0.08 0.10 0.12 0.12 0.12 0.14 0.14 0.13 0.12 0.10 0.07 0.04 0.03 0.02 0.02 0.01 0.01 0.00 0.00 0.00 0.00 0.00 0.00 0.00 0.00 0.01 0.01 0.02 0.02 0.02 0.03 0.04 0.04 0.07 0.09 0.11 0.13
0.05 0.07 0.08 0.07 0.08 0.08 0.09 0.11 0.14 0.18 0.21 0.22 0.21 0.19 0.15 0.11 0.09 0.07 0.06 0.06 0.04 0.03 0.02 0.01 0.01 0.01 0.00 0.00 0.00 0.00 0.00 0.00 0.00 0.00 0.00 0.00 0.00 0.01 0.02 0.03 0.05 0.05 0.04
0.06 0.08 0.11 0.11 0.13 0.13 0.12 0.15 0.19 0.24 0.29 0.28 0.25 0.21 0.18 0.15 0.12 0.12 0.10 0.09 0.08 0.06 0.04 0.02 0.02 0.01 0.00 0.00 0.00 0.00 0.00 0.00 0.00 0.00 0.00 0.00 0.00 0.00 0.00 0.02 0.05 0.04 0.01
0.14 0.21 0.25 0.28 0.28 0.28 0.23 0.22 0.23 0.26 0.29 0.29 0.26 0.22 0.21 0.21 0.19 0.16 0.14 0.11 0.10 0.09 0.07 0.04 0.03 0.02 0.01 0.00 0.00 0.00 0.00 0.00 0.00 0.00 0.00 0.00 0.00 0.00 0.00 0.01 0.04 0.05 0.03
0.18 0.26 0.34 0.46 0.52 0.55 0.49 0.41 0.34 0.31 0.29 0.26 0.25 0.24 0.24 0.23 0.18 0.14 0.13 0.13 0.13 0.12 0.11 0.08 0.06 0.05 0.02 0.01 0.00 0.00 0.00 0.00 0.00 0.00 0.00 0.00 0.00 0.00 0.00 0.00 0.01 0.00 0.01
0.11 0.17 0.31 0.42 0.49 0.57 0.64 0.63 0.56 0.41 0.32 0.26 0.25 0.24 0.26 0.25 0.22 0.19 0.15 0.13 0.14 0.16 0.15 0.12 0.09 0.07 0.05 0.02 0.01 0.00 0.00 0.00 0.00 0.01 0.00 0.00 0.00 0.00 0.00 0.00 0.00 0.00 0.00
0.08 0.13 0.21 0.31 0.33 0.33 0.41 0.53 0.50 0.42 0.40 0.36 0.34 0.30 0.28 0.30 0.28 0.27 0.25 0.19 0.15 0.14 0.14 0.12 0.10 0.09 0.08 0.06 0.03 0.01 0.00 0.00 0.01 0.01 0.00 0.00 0.00 0.00 0.00 0.00 0.00 0.00 0.00
0.11 0.13 0.18 0.22 0.23 0.24 0.25 0.31 0.29 0.27 0.32 0.39 0.41 0.37 0.33 0.32 0.29 0.31 0.29 0.26 0.24 0.21 0.19 0.17 0.14 0.12 0.11 0.11 0.10 0.07 0.04 0.02 0.02 0.01 0.01 0.01 0.00 0.00 0.00 0.00 0.00 0.00 0.00
0.18 0.17 0.18 0.19 0.21 0.22 0.22 0.19 0.16 0.17 0.23 0.26 0.28 0.30 0.32 0.33 0.32 0.31 0.28 0.26 0.24 0.23 0.24 0.21 0.17 0.14 0.13 0.13 0.13 0.12 0.10 0.07 0.05 0.03 0.03 0.03 0.03 0.02 0.01 0.01 0.01 0.00 0.00
0.10 0.08 0.08 0.08 0.08 0.10 0.13 0.12 0.08 0.09 0.15 0.18 0.21 0.20 0.21 0.24 0.25 0.23 0.22 0.18 0.16 0.15 0.13 0.12 0.11 0.11 0.09 0.08 0.08 0.08 0.09 0.08 0.07 0.07 0.06 0.06 0.05 0.05 0.03 0.03 0.03 0.02 0.02

GEFSMW_prec_meanprecacc_042.txt.gz
Total_Precipitation_Accumulation
1.18 1.12 1.01 0.83 0.68 0.58 0.53 0.49 0.45 0.42 0.46 0.46 0.48 0.51 0.56 0.54 0.42 0.32 0.28 0.29 0.28 0.32 0.42 0.40 0.49 0.44 0.40 0.40 0.37 0.35 0.32 0.33 0.36 0.26 0.17 0.08 0.03 0.04 0.05 0.10 0.17 0.25 0.37
1.36 1.31 1.26 1.13 0.88 0.83 0.87 0.95 0.93 0.96 0.93 0.97 1.05 1.08 1.09 0.96 0.80 0.66 0.54 0.50 0.50 0.45 0.46 0.56 0.62 0.62 0.58 0.54 0.48 0.43 0.36 0.35 0.48 0.44 0.33 0.26 0.21 0.15 0.07 0.09 0.13 0.24 0.42
0.84 1.09 1.18 1.32 1.25 1.15 1.11 1.20 1.35 1.42 1.37 1.45 1.56 1.53 1.56 1.49 1.26 1.05 0.85 0.72 0.66 0.59 0.58 0.64 0.76 0.74 0.68 0.63 0.62 0.56 0.48 0.42 0.48 0.58 0.59 0.54 0.46 0.30 0.09 0.07 0.12 0.22 0.32
0.53 0.80 0.98 1.12 1.36 1.38 1.31 1.41 1.53 1.64 1.71 1.82 1.83 1.79 1.75 1.64 1.45 1.22 0.92 0.76 0.72 0.74 0.77 0.74 0.76 0.80 0.80 0.76 0.70 0.69 0.64 0.52 0.45 0.61 0.76 0.74 0.65 0.52 0.29 0.19 0.15 0.18 0.23
0.51 0.73 0.92 1.09 1.16 1.18 1.35 1.62 1.79 1.92 1.94 1.87 1.79 1.81 1.73 1.66 1.54 1.32 1.08 0.95 0.92 0.85 0.76 0.78 0.86 0.91 0.93 0.85 0.73 0.72 0.73 0.63 0.54 0.58 0.65 0.68 0.69 0.68 0.58 0.40 0.35 0.23 0.15
0.67 0.84 0.98 1.12 1.17 1.24 1.47 1.72 1.84 1.88 1.86 1.84 1.84 1.84 1.79 1.72 1.61 1.43 1.26 1.07 0.93 0.77 0.70 0.68 0.75 0.82 0.85 0.83 0.78 0.73 0.71 0.66 0.61 0.60 0.67 0.74 0.72 0.82 0.81 0.55 0.44 0.34 0.15
0.91 1.00 1.07 1.10 1.18 1.31 1.44 1.51 1.57 1.58 1.58 1.59 1.67 1.66 1.59 1.51 1.44 1.33 1.16 0.98 0.85 0.70 0.64 0.59 0.53 0.55 0.61 0.71 0.80 0.74 0.72 0.68 0.65 0.65 0.68 0.75 0.76 0.84 0.86 0.71 0.53 0.41 0.24
1.21 1.34 1.34 1.29 1.25 1.24 1.24 1.23 1.23 1.23 1.23 1.27 1.32 1.29 1.22 1.16 1.11 1.05 0.98 0.89 0.81 0.71 0.62 0.51 0.41 0.38 0.39 0.49 0.64 0.68 0.71 0.69 0.63 0.58 0.58 0.57 0.56 0.61 0.73 0.86 0.77 0.56 0.45
0.94 1.20 1.22 1.15 1.09 1.04 0.98 0.95 0.90 0.83 0.80 0.80 0.80 0.81 0.80 0.80 0.77 0.72 0.68 0.64 0.60 0.51 0.44 0.39 0.35 0.33 0.32 0.33 0.39 0.52 0.61 0.66 0.61 0.60 0.57 0.53 0.50 0.50 0.55 0.72 0.86 0.77 0.69
0.75 0.78 0.81 0.86 0.88 0.87 0.82 0.76 0.68 0.62 0.60 0.54 0.49 0.46 0.42 0.39 0.36 0.30 0.27 0.26 0.25 0.23 0.20 0.20 0.20 0.21 0.22 0.25 0.33 0.42 0.54 0.60 0.60 0.56 0.53 0.55 0.53 0.54 0.52 0.55 0.71 0.82 0.89
0.54 0.53 0.53 0.57 0.67 0.73 0.70 0.62 0.57 0.50 0.42 0.36 0.32 0.24 0.19 0.15 0.12 0.09 0.08 0.07 0.06 0.05 0.05 0.05 0.06 0.08 0.08 0.09 0.13 0.21 0.33 0.44 0.48 0.44 0.45 0.51 0.55 0.61 0.50 0.54 0.63 0.73 0.90
0.35 0.34 0.37 0.39 0.42 0.46 0.46 0.44 0.40 0.38 0.29 0.20 0.14 0.10 0.08 0.05 0.04 0.03 0.02 0.01 0.01 0.01 0.01 0.01 0.01 0.02 0.02 0.04 0.05 0.08 0.18 0.35 0.45 0.54 0.58 0.59 0.65 0.69 0.58 0.59 0.72 0.87 1.01
0.30 0.29 0.28 0.31 0.32 0.34 0.35 0.35 0.34 0.33 0.22 0.15 0.11 0.07 0.06 0.04 0.03 0.02 0.01 0.00 0.00 0.00 0.00 0.00 0.00 0.01 0.01 0.02 0.03 0.04 0.08 0.19 0.33 0.43 0.57 0.67 0.75 0.80 0.78 0.72 0.83 0.98 1.19
0.30 0.30 0.29 0.28 0.31 0.35 0.34 0.32 0.33 0.27 0.16 0.13 0.11 0.09 0.06 0.05 0.03 0.02 0.01 0.00 0.00 0.00 0.00 0.01 0.01 0.01 0.01 0.02 0.03 0.04 0.06 0.09 0.17 0.24 0.29 0.36 0.46 0.54 0.67 0.72 0.76 0.84 1.05
0.22 0.22 0.23 0.24 0.25 0.28 0.29 0.27 0.27 0.22 0.18 0.17 0.15 0.11 0.08 0.06 0.04 0.02 0.02 0.01 0.00 0.00 0.00 0.00 0.00 0.00 0.00 0.00 0.01 0.03 0.04 0.05 0.09 0.12 0.13 0.15 0.17 0.19 0.24 0.33 0.49 0.60 0.75
0.20 0.19 0.23 0.25 0.20 0.17 0.17 0.21 0.25 0.23 0.21 0.20 0.20 0.17 0.13 0.09 0.06 0.04 0.02 0.01 0.01 0.00 0.00 0.00 0.00 0.00 0.00 0.00 0.00 0.01 0.02 0.03 0.05 0.06 0.07 0.08 0.10 0.09 0.09 0.11 0.17 0.28 0.46
0.12 0.11 0.14 0.16 0.15 0.15 0.15 0.16 0.19 0.20 0.21 0.25 0.25 0.24 0.19 0.14 0.10 0.06 0.03 0.02 0.02 0.01 0.01 0.00 0.00 0.00 0.00 0.00 0.00 0.00 0.00 0.01 0.01 0.02 0.02 0.02 0.03 0.04 0.04 0.07 0.09 0.11 0.13
0.08 0.11 0.11 0.09 0.09 0.11 0.13 0.15 0.20 0.23 0.28 0.31 0.32 0.30 0.22 0.15 0.11 0.09 0.07 0.06 0.04 0.03 0.02 0.01 0.01 0.01 0.00 0.00 0.00 0.00 0.00 0.00 0.00 0.00 0.00 0.00 0.00 0.01 0.02 0.03 0.05 0.05 0.04
0.06 0.10 0.12 0.11 0.13 0.13 0.13 0.17 0.23 0.29 0.34 0.33 0.30 0.26 0.23 0.18 0.14 0.13 0.11 0.09 0.08 0.06 0.04 0.02 0.02 0.01 0.00 0.00 0.00 0.00 0.00 0.00 0.00 0.00 0.00 0.00 0.00 0.00 0.00 0.02 0.05 0.04 0.01
0.15 0.21 0.25 0.28 0.28 0.28 0.23 0.23 0.25 0.29 0.33 0.33 0.29 0.25 0.23 0.22 0.19 0.16 0.14 0.11 0.10 0.09 0.07 0.04 0.03 0.02 0.01 0.00 0.00 0.00 0.00 0.00 0.00 0.00 0.00 0.00 0.00 0.00 0.00 0.01 0.04 0.05 0.03
0.18 0.26 0.34 0.46 0.52 0.56 0.49 0.41 0.35 0.33 0.32 0.29 0.27 0.25 0.24 0.23 0.18 0.14 0.13 0.13 0.13 0.12 0.11 0.08 0.06 0.05 0.02 0.01 0.00 0.00 0.00 0.00 0.00 0.00 0.00 0.00 0.00 0.00 0.00 0.00 0.01 0.00 0.01
0.11 0.17 0.31 0.42 0.49 0.57 0.64 0.64 0.56 0.42 0.34 0.28 0.26 0.25 0.26 0.26 0.22 0.19 0.15 0.13 0.14 0.16 0.15 0.12 0.09 0.07 0.05 0.02 0.01 0.00 0.00 0.00 0.01 0.01 0.00 0.00 0.00 0.00 0.00 0.00 0.00 0.00 0.00
0.08 0.13 0.21 0.31 0.33 0.33 0.41 0.53 0.50 0.43 0.41 0.37 0.34 0.30 0.28 0.30 0.28 0.27 0.25 0.19 0.15 0.14 0.14 0.12 0.10 0.09 0.08 0.06 0.03 0.01 0.00 0.00 0.01 0.01 0.01 0.00 0.00 0.00 0.00 0.00 0.00 0.00 0.00
0.11 0.13 0.18 0.22 0.23 0.24 0.25 0.31 0.30 0.27 0.32 0.40 0.41 0.37 0.33 0.32 0.29 0.31 0.29 0.26 0.24 0.21 0.19 0.17 0.14 0.12 0.11 0.11 0.10 0.07 0.04 0.02 0.02 0.01 0.01 0.01 0.01 0.01 0.01 0.00 0.00 0.00 0.00
0.18 0.17 0.18 0.19 0.21 0.22 0.22 0.19 0.16 0.17 0.23 0.26 0.28 0.30 0.32 0.33 0.32 0.31 0.28 0.26 0.24 0.23 0.24 0.21 0.17 0.14 0.13 0.13 0.13 0.12 0.10 0.07 0.05 0.04 0.03 0.04 0.03 0.03 0.02 0.02 0.01 0.01 0.01
0.10 0.08 0.08 0.08 0.08 0.10 0.13 0.12 0.08 0.09 0.15 0.18 0.21 0.20 0.21 0.24 0.25 0.23 0.22 0.18 0.16 0.15 0.13 0.12 0.11 0.11 0.09 0.08 0.08 0.08 0.09 0.08 0.07 0.07 0.07 0.06 0.05 0.05 0.04 0.04 0.04 0.03 0.03

GEFSMW_prec_meanprecacc_048.txt.gz
Total_Precipitation_Accumulation
1.18 1.13 1.01 0.84 0.68 0.59 0.55 0.51 0.48 0.45 0.48 0.49 0.53 0.56 0.61 0.59 0.47 0.38 0.33 0.36 0.39 0.47 0.58 0.56 0.71 0.71 0.67 0.68 0.63 0.57 0.50 0.47 0.49 0.33 0.22 0.11 0.04 0.05 0.05 0.11 0.17 0.25 0.38
1.37 1.32 1.26 1.13 0.88 0.84 0.89 0.99 0.98 1.01 0.97 1.04 1.15 1.18 1.19 1.05 0.90 0.74 0.61 0.60 0.64 0.63 0.64 0.77 0.88 0.88 0.82 0.79 0.75 0.66 0.55 0.51 0.65 0.56 0.39 0.29 0.23 0.16 0.07 0.09 0.13 0.24 0.43
0.84 1.10 1.19 1.33 1.26 1.16 1.13 1.22 1.38 1.47 1.46 1.57 1.69 1.66 1.71 1.64 1.40 1.18 1.01 0.88 0.85 0.80 0.85 0.95 1.07 1.02 0.94 0.91 0.93 0.85 0.74 0.63 0.65 0.71 0.70 0.61 0.49 0.31 0.09 0.08 0.13 0.24 0.34
0.54 0.80 0.99 1.13 1.38 1.41 1.34 1.43 1.57 1.70 1.80 1.96 1.98 1.96 1.96 1.85 1.69 1.50 1.16 0.99 0.96 0.99 1.03 1.01 1.04 1.11 1.11 1.04 0.96 0.92 0.84 0.69 0.58 0.72 0.85 0.82 0.73 0.57 0.32 0.20 0.18 0.22 0.27
0.51 0.74 0.93 1.11 1.18 1.21 1.38 1.66 1.84 1.98 2.03 1.99 1.94 1.99 1.93 1.89 1.86 1.65 1.41 1.29 1.25 1.17 1.06 1.07 1.16 1.19 1.20 1.09 0.93 0.87 0.86 0.75 0.64 0.66 0.71 0.73 0.76 0.75 0.64 0.42 0.38 0.27 0.20
0.67 0.84 0.98 1.13 1.18 1.26 1.50 1.76 1.88 1.93 1.93 1.93 1.97 2.00 1.97 1.96 1.88 1.71 1.60 1.44 1.32 1.16 1.08 1.07 1.12 1.16 1.16 1.06 0.96 0.86 0.82 0.75 0.67 0.65 0.72 0.79 0.77 0.88 0.89 0.60 0.48 0.39 0.19
0.91 1.01 1.07 1.11 1.19 1.32 1.46 1.55 1.62 1.64 1.64 1.66 1.75 1.78 1.75 1.70 1.64 1.57 1.48 1.35 1.24 1.06 0.99 0.95 0.86 0.83 0.84 0.90 0.94 0.85 0.81 0.74 0.69 0.68 0.71 0.79 0.81 0.90 0.93 0.78 0.57 0.44 0.26
1.21 1.34 1.34 1.29 1.26 1.25 1.25 1.26 1.28 1.29 1.29 1.35 1.41 1.40 1.39 1.37 1.34 1.31 1.28 1.22 1.16 1.06 0.96 0.84 0.71 0.63 0.60 0.64 0.76 0.77 0.77 0.73 0.65 0.60 0.61 0.61 0.60 0.66 0.79 0.91 0.82 0.58 0.46
0.94 1.20 1.22 1.15 1.11 1.06 1.00 0.98 0.95 0.88 0.85 0.86 0.88 0.92 0.93 0.96 0.97 0.95 0.96 0.95 0.92 0.83 0.75 0.67 0.59 0.55 0.49 0.44 0.47 0.57 0.64 0.68 0.63 0.62 0.59 0.55 0.52 0.52 0.58 0.75 0.90 0.82 0.71
0.75 0.78 0.82 0.87 0.89 0.88 0.84 0.80 0.72 0.67 0.67 0.63 0.61 0.60 0.59 0.59 0.56 0.52 0.50 0.53 0.53 0.50 0.46 0.43 0.41 0.39 0.36 0.34 0.38 0.46 0.57 0.62 0.61 0.57 0.54 0.56 0.54 0.55 0.53 0.56 0.74 0.87 0.93
0.55 0.53 0.54 0.59 0.68 0.75 0.72 0.66 0.62 0.56 0.52 0.48 0.45 0.40 0.38 0.38 0.35 0.33 0.32 0.30 0.28 0.25 0.22 0.21 0.19 0.18 0.16 0.15 0.17 0.23 0.34 0.44 0.49 0.45 0.46 0.52 0.56 0.62 0.51 0.54 0.64 0.75 0.93
0.35 0.36 0.39 0.42 0.45 0.48 0.49 0.49 0.47 0.48 0.42 0.36 0.32 0.28 0.25 0.23 0.22 0.23 0.25 0.24 0.18 0.15 0.14 0.12 0.10 0.07 0.07 0.07 0.07 0.09 0.19 0.35 0.46 0.55 0.58 0.60 0.65 0.70 0.58 0.60 0.72 0.88 1.02
0.31 0.31 0.31 0.34 0.36 0.38 0.41 0.42 0.43 0.45 0.39 0.34 0.32 0.30 0.26 0.23 0.21 0.19 0.20 0.19 0.14 0.10 0.09 0.07 0.05 0.04 0.03 0.03 0.04 0.05 0.09 0.20 0.33 0.44 0.57 0.68 0.76 0.81 0.78 0.72 0.83 0.99 1.19
0.32 0.33 0.33 0.33 0.38 0.46 0.47 0.46 0.48 0.44 0.38 0.35 0.31 0.26 0.21 0.18 0.17 0.16 0.14 0.14 0.11 0.08 0.06 0.05 0.03 0.02 0.02 0.02 0.03 0.04 0.06 0.09 0.17 0.25 0.29 0.36 0.46 0.54 0.67 0.72 0.77 0.85 1.06
0.25 0.26 0.29 0.32 0.37 0.42 0.44 0.44 0.48 0.43 0.40 0.39 0.36 0.30 0.23 0.19 0.16 0.15 0.15 0.12 0.10 0.07 0.04 0.02 0.01 0.01 0.00 0.01 0.02 0.03 0.04 0.06 0.10 0.13 0.13 0.15 0.17 0.19 0.24 0.33 0.49 0.61 0.76
0.24 0.25 0.30 0.34 0.32 0.35 0.36 0.34 0.37 0.39 0.37 0.37 0.38 0.35 0.32 0.25 0.21 0.18 0.15 0.11 0.09 0.06 0.04 0.02 0.01 0.00 0.00 0.00 0.00 0.01 0.02 0.03 0.05 0.06 0.07 0.08 0.10 0.09 0.09 0.11 0.17 0.28 0.46
0.18 0.20 0.22 0.24 0.23 0.25 0.31 0.30 0.27 0.29 0.33 0.36 0.37 0.40 0.38 0.32 0.26 0.19 0.15 0.11 0.08 0.05 0.03 0.01 0.00 0.00 0.00 0.00 0.00 0.00 0.00 0.01 0.01 0.02 0.02 0.02 0.03 0.04 0.04 0.07 0.09 0.11 0.13
0.12 0.17 0.17 0.14 0.13 0.14 0.17 0.23 0.27 0.29 0.36 0.42 0.44 0.44 0.35 0.28 0.22 0.18 0.15 0.14 0.11 0.07 0.03 0.02 0.01 0.01 0.00 0.00 0.00 0.00 0.00 0.00 0.00 0.00 0.00 0.00 0.00 0.01 0.02 0.03 0.05 0.05 0.05
0.08 0.14 0.16 0.14 0.15 0.15 0.15 0.20 0.27 0.34 0.42 0.45 0.44 0.42 0.36 0.28 0.23 0.20 0.17 0.14 0.12 0.08 0.05 0.03 0.02 0.01 0.00 0.00 0.00 0.00 0.00 0.00 0.00 0.00 0.00 0.00 0.00 0.00 0.00 0.02 0.05 0.04 0.02
0.15 0.22 0.26 0.29 0.28 0.29 0.24 0.25 0.28 0.34 0.41 0.43 0.40 0.36 0.33 0.30 0.26 0.23 0.19 0.14 0.13 0.10 0.07 0.04 0.03 0.02 0.01 0.00 0.00 0.00 0.00 0.00 0.00 0.00 0.00 0.00 0.00 0.00 0.00 0.01 0.04 0.05 0.04
0.19 0.27 0.34 0.46 0.52 0.56 0.50 0.43 0.39 0.39 0.39 0.35 0.33 0.31 0.29 0.27 0.22 0.19 0.17 0.16 0.14 0.13 0.12 0.08 0.06 0.05 0.03 0.01 0.00 0.00 0.00 0.00 0.00 0.00 0.00 0.00 0.00 0.00 0.00 0.00 0.01 0.00 0.01
0.11 0.18 0.32 0.42 0.49 0.58 0.65 0.65 0.58 0.46 0.39 0.33 0.32 0.30 0.30 0.28 0.24 0.22 0.19 0.15 0.15 0.17 0.16 0.12 0.09 0.07 0.05 0.02 0.01 0.00 0.00 0.00 0.01 0.01 0.00 0.00 0.00 0.00 0.00 0.00 0.00 0.00 0.00
0.08 0.13 0.22 0.31 0.33 0.34 0.41 0.55 0.53 0.46 0.44 0.41 0.39 0.34 0.31 0.32 0.30 0.30 0.27 0.20 0.17 0.16 0.15 0.12 0.10 0.09 0.08 0.06 0.03 0.01 0.00 0.00 0.01 0.01 0.01 0.00 0.00 0.00 0.00 0.00 0.00 0.00 0.00
0.11 0.13 0.18 0.23 0.23 0.24 0.26 0.33 0.32 0.30 0.36 0.44 0.46 0.41 0.36 0.34 0.31 0.33 0.30 0.27 0.26 0.22 0.20 0.17 0.14 0.12 0.11 0.11 0.10 0.07 0.04 0.02 0.02 0.01 0.01 0.01 0.01 0.01 0.01 0.01 0.00 0.00 0.00
0.18 0.17 0.18 0.19 0.21 0.22 0.22 0.19 0.17 0.19 0.27 0.31 0.32 0.34 0.35 0.36 0.34 0.32 0.29 0.27 0.25 0.24 0.24 0.21 0.17 0.14 0.13 0.13 0.13 0.12 0.10 0.07 0.05 0.04 0.03 0.04 0.03 0.03 0.02 0.02 0.02 0.01 0.01
0.11 0.09 0.09 0.08 0.08 0.11 0.13 0.12 0.09 0.11 0.19 0.23 0.25 0.23 0.23 0.25 0.26 0.24 0.22 0.18 0.16 0.15 0.13 0.12 0.11 0.11 0.09 0.08 0.08 0.08 0.09 0.08 0.07 0.07 0.07 0.06 0.05 0.05 0.04 0.04 0.04 0.03 0.03